When you browse on this site, cookies collect data to enhance your experience and personalize the content and advertising you see.
Visit our Privacy Policy to learn more. By continuing to use the site, you agree to this use of cookies and data.
  • en France
  • Liste des pays
  • À 7 jours
  • Température de l'eau
  • Carte satellitaire
  • Carte météo
  • Widgets météo
  • user-avatar
    Se connecter

    Météo par heure à Burutu

    Ce jour, 23 Mai, Jeudi

    Heure Température Précipitation Vent Pression Humidité
    00:00 +29°C° 0 mm 2 m/s 757 mmHg 81%
    01:00 +29°C° 0 mm 2 m/s 757 mmHg 82%
    02:00 +29°C° 0 mm 2 m/s 757 mmHg 82%
    03:00 +29°C° 0 mm 2 m/s 757 mmHg 82%
    04:00 +29°C° 0 mm 1 m/s 757 mmHg 82%
    05:00 +29°C° 0 mm 1 m/s 757 mmHg 82%
    06:00 +29°C° 0 mm 1 m/s 757 mmHg 80%
    07:00 +31°C° 0 mm 1 m/s 757 mmHg 74%
    08:00 +32°C° 0 mm 2 m/s 758 mmHg 68%
    09:00 +34°C° 0 mm 2 m/s 758 mmHg 63%
    10:00 +35°C° 0 mm 2 m/s 757 mmHg 62%
    11:00 +35°C° 0 mm 3 m/s 757 mmHg 60%
    12:00 +36°C° 0 mm 3 m/s 757 mmHg 59%
    13:00 +35°C° 0.1 mm 3 m/s 756 mmHg 60%
    14:00 +35°C° 0.1 mm 3 m/s 756 mmHg 62%
    15:00 +35°C° 0.1 mm 4 m/s 755 mmHg 63%
    16:00 +34°C° 0.6 mm 4 m/s 755 mmHg 68%
    17:00 +31°C° 0.6 mm 3 m/s 756 mmHg 74%
    18:00 +30°C° 0.6 mm 3 m/s 756 mmHg 79%
    19:00 +30°C° 0.1 mm 3 m/s 756 mmHg 80%
    20:00 +30°C° 0.1 mm 3 m/s 757 mmHg 81%
    21:00 +29°C° 0.1 mm 3 m/s 757 mmHg 82%
    22:00 +29°C° 0 mm 3 m/s 757 mmHg 83%
    23:00 +29°C° 0 mm 3 m/s 757 mmHg 83%

    Demain, 24 Mai, Vendredi

    Heure Température Précipitation Vent Pression Humidité
    00:00 +29°C° 0 mm 3 m/s 757 mmHg 84%
    01:00 +29°C° 0 mm 3 m/s 757 mmHg 85%
    02:00 +29°C° 0 mm 3 m/s 756 mmHg 85%
    03:00 +29°C° 0 mm 3 m/s 756 mmHg 86%
    04:00 +29°C° 0 mm 3 m/s 756 mmHg 86%
    05:00 +29°C° 0 mm 3 m/s 756 mmHg 86%
    06:00 +29°C° 0 mm 3 m/s 756 mmHg 86%
    07:00 +30°C° 0.1 mm 3 m/s 757 mmHg 79%
    08:00 +33°C° 0.1 mm 3 m/s 757 mmHg 73%
    09:00 +34°C° 0.1 mm 3 m/s 758 mmHg 66%
    10:00 +34°C° 1.8 mm 3 m/s 757 mmHg 67%
    11:00 +34°C° 1.8 mm 4 m/s 757 mmHg 67%
    12:00 +34°C° 1.8 mm 4 m/s 757 mmHg 67%
    13:00 +34°C° 1.6 mm 4 m/s 756 mmHg 69%
    14:00 +33°C° 1.6 mm 3 m/s 756 mmHg 71%
    15:00 +33°C° 1.6 mm 3 m/s 755 mmHg 74%
    16:00 +31°C° 0.6 mm 3 m/s 756 mmHg 77%
    17:00 +30°C° 0.6 mm 3 m/s 756 mmHg 81%
    18:00 +29°C° 0.6 mm 2 m/s 756 mmHg 85%
    19:00 +29°C° 0 mm 2 m/s 756 mmHg 86%
    20:00 +29°C° 0 mm 2 m/s 757 mmHg 86%
    21:00 +29°C° 0 mm 3 m/s 757 mmHg 87%
    22:00 +29°C° 0 mm 2 m/s 757 mmHg 87%
    23:00 +29°C° 0 mm 2 m/s 757 mmHg 88%

    Après-demain, 25 Mai, Samedi

    Heure Température Précipitation Vent Pression Humidité
    00:00 +29°C° 0 mm 2 m/s 757 mmHg 88%
    01:00 +29°C° 0.4 mm 2 m/s 757 mmHg 88%
    02:00 +29°C° 0.4 mm 2 m/s 756 mmHg 89%
    03:00 +28°C° 0.4 mm 2 m/s 756 mmHg 89%
    04:00 +29°C° 1.4 mm 2 m/s 756 mmHg 88%
    05:00 +29°C° 1.4 mm 2 m/s 757 mmHg 88%
    06:00 +29°C° 1.4 mm 2 m/s 757 mmHg 87%
    07:00 +30°C° 0 mm 2 m/s 757 mmHg 82%
    08:00 +31°C° 0 mm 3 m/s 758 mmHg 77%
    09:00 +33°C° 0 mm 3 m/s 758 mmHg 71%
    10:00 +34°C° 0.2 mm 4 m/s 758 mmHg 68%
    11:00 +35°C° 0.2 mm 4 m/s 758 mmHg 66%
    12:00 +35°C° 0.2 mm 5 m/s 757 mmHg 63%
    13:00 +34°C° 1.4 mm 4 m/s 757 mmHg 68%
    14:00 +33°C° 1.4 mm 4 m/s 756 mmHg 74%
    15:00 +32°C° 1.4 mm 4 m/s 756 mmHg 79%
    16:00 +30°C° 0.2 mm 3 m/s 756 mmHg 82%
    17:00 +30°C° 0.2 mm 3 m/s 756 mmHg 84%
    18:00 +29°C° 0.2 mm 2 m/s 757 mmHg 87%
    19:00 +29°C° 1.1 mm 2 m/s 757 mmHg 87%
    20:00 +29°C° 1.1 mm 2 m/s 758 mmHg 87%
    21:00 +29°C° 1.1 mm 1 m/s 759 mmHg 87%
    22:00 +29°C° 0.2 mm 2 m/s 758 mmHg 87%
    23:00 +29°C° 0.2 mm 2 m/s 758 mmHg 87%

    26 Mai, Dimanche

    Heure Température Précipitation Vent Pression Humidité
    00:00 +29°C° 0.2 mm 2 m/s 758 mmHg 87%
    01:00 +28°C° 0 mm 2 m/s 757 mmHg 87%
    02:00 +28°C° 0 mm 2 m/s 757 mmHg 87%
    03:00 +28°C° 0 mm 1 m/s 756 mmHg 86%
    04:00 +28°C° 0 mm 1 m/s 757 mmHg 86%
    05:00 +28°C° 0 mm 1 m/s 757 mmHg 85%
    06:00 +29°C° 0 mm 1 m/s 757 mmHg 84%
    07:00 +30°C° 0 mm 1 m/s 758 mmHg 79%
    08:00 +31°C° 0 mm 2 m/s 758 mmHg 75%
    09:00 +32°C° 0 mm 2 m/s 759 mmHg 70%
    10:00 +34°C° 0 mm 2 m/s 758 mmHg 66%
    11:00 +34°C° 0 mm 2 m/s 758 mmHg 62%
    12:00 +35°C° 0 mm 3 m/s 757 mmHg 58%
    13:00 +34°C° 0 mm 3 m/s 756 mmHg 62%
    14:00 +33°C° 0 mm 3 m/s 756 mmHg 66%
    15:00 +33°C° 0 mm 4 m/s 755 mmHg 70%
    16:00 +32°C° 0 mm 4 m/s 755 mmHg 73%
    17:00 +30°C° 0 mm 3 m/s 756 mmHg 75%
    18:00 +30°C° 0 mm 3 m/s 756 mmHg 78%
    19:00 +29°C° 0 mm 3 m/s 757 mmHg 79%
    20:00 +29°C° 0 mm 2 m/s 757 mmHg 81%
    21:00 +29°C° 0 mm 2 m/s 758 mmHg 82%
    22:00 +29°C° 0 mm 2 m/s 758 mmHg 83%
    23:00 +29°C° 0 mm 2 m/s 757 mmHg 84%

    27 Mai, Lundi

    Heure Température Précipitation Vent Pression Humidité
    00:00 +28°C° 0 mm 2 m/s 757 mmHg 84%
    01:00 +28°C° 0 mm 2 m/s 757 mmHg 85%
    02:00 +28°C° 0 mm 2 m/s 757 mmHg 86%
    03:00 +28°C° 0 mm 2 m/s 756 mmHg 87%
    04:00 +28°C° 0 mm 2 m/s 757 mmHg 87%
    05:00 +28°C° 0 mm 2 m/s 757 mmHg 86%
    06:00 +29°C° 0 mm 2 m/s 758 mmHg 86%
    07:00 +30°C° 0.2 mm 3 m/s 758 mmHg 80%
    08:00 +32°C° 0.2 mm 4 m/s 758 mmHg 74%
    09:00 +33°C° 0.2 mm 4 m/s 759 mmHg 68%
    10:00 +33°C° 1.7 mm 4 m/s 758 mmHg 70%
    11:00 +33°C° 1.7 mm 4 m/s 758 mmHg 71%
    12:00 +33°C° 1.7 mm 4 m/s 757 mmHg 72%
    13:00 +32°C° 0.7 mm 4 m/s 757 mmHg 75%
    14:00 +32°C° 0.7 mm 4 m/s 756 mmHg 77%
    15:00 +30°C° 0.7 mm 4 m/s 756 mmHg 80%
    16:00 +30°C° 0 mm 4 m/s 756 mmHg 81%
    17:00 +29°C° 0 mm 3 m/s 756 mmHg 83%
    18:00 +29°C° 0 mm 3 m/s 756 mmHg 85%
    19:00 +29°C° 0 mm 2 m/s 757 mmHg 86%
    20:00 +29°C° 0 mm 2 m/s 757 mmHg 86%
    21:00 +28°C° 0 mm 2 m/s 757 mmHg 87%
    22:00 +28°C° 0 mm 2 m/s 757 mmHg 87%
    23:00 +28°C° 0 mm 2 m/s 757 mmHg 88%

    28 Mai, Mardi

    Heure Température Précipitation Vent Pression Humidité
    00:00 +28°C° 0 mm 2 m/s 756 mmHg 88%
    01:00 +28°C° 0.1 mm 2 m/s 756 mmHg 88%
    02:00 +28°C° 0.1 mm 2 m/s 757 mmHg 88%
    03:00 +28°C° 0.1 mm 1 m/s 757 mmHg 88%
    04:00 +28°C° 0.5 mm 1 m/s 757 mmHg 87%
    05:00 +28°C° 0.5 mm 1 m/s 758 mmHg 87%
    06:00 +28°C° 0.5 mm 1 m/s 758 mmHg 87%
    07:00 +30°C° 0 mm 1 m/s 758 mmHg 80%
    08:00 +31°C° 0 mm 2 m/s 759 mmHg 73%
    09:00 +32°C° 0 mm 2 m/s 759 mmHg 66%
    10:00 +34°C° 0.4 mm 3 m/s 758 mmHg 65%
    11:00 +34°C° 0.4 mm 3 m/s 758 mmHg 65%
    12:00 +34°C° 0.4 mm 3 m/s 757 mmHg 64%
    13:00 +34°C° 0.8 mm 3 m/s 757 mmHg 66%
    14:00 +33°C° 0.8 mm 4 m/s 756 mmHg 68%
    15:00 +33°C° 0.8 mm 4 m/s 756 mmHg 70%
    16:00 +31°C° 0.2 mm 3 m/s 756 mmHg 73%
    17:00 +30°C° 0.2 mm 3 m/s 757 mmHg 77%
    18:00 +30°C° 0.2 mm 2 m/s 757 mmHg 81%
    19:00 +29°C° 0 mm 2 m/s 757 mmHg 82%
    20:00 +29°C° 0 mm 2 m/s 757 mmHg 82%
    21:00 +29°C° 0 mm 3 m/s 757 mmHg 83%
    22:00 +28°C° 0 mm 2 m/s 757 mmHg 84%
    23:00 +28°C° 0 mm 2 m/s 757 mmHg 85%
    Voir plus